SCP
0 0 0 0 0 0 0 0 0 0 0 0 0 -0 -0 -0 0 0 -0 -0 0 0 0 1 0 0 1 1 0 0 0 0 0 0 0 0 0 0 0 0 -0 -0 -0
0 0 0 0 0 0 0 0 0 0 0 0 0 0 0 0 0 0 0 0 -0 0 0 1 1 0 1 0 0 0 0 0 0 0 0 0 0 0 0 0 0 -0 -0
0 0 0 0 0 0 0 0 0 0 0 0 0 0 0 0 0 0 0 0 0 0 0 0 1 0 1 1 0 0 0 0 0 0 0 0 0 0 0 0 0 0 0
1 0 0 0 0 0 0 0 0 0 0 0 0 0 0 0 0 0 0 0 0 0 0 0 0 0 0 1 0 0 0 0 0 0 0 0 0 0 0 0 0 0 0
1 0 0 0 0 0 0 0 0 0 0 0 0 0 0 0 0 0 0 0 0 0 0 0 0 0 0 0 0 0 0 0 0 0 0 0 0 0 0 0 0 0 0
1 1 0 0 0 0 0 0 0 0 0 0 0 0 0 0 0 0 0 0 0 0 0 0 0 0 0 0 1 1 1 1 0 0 0 0 0 0 0 0 0 0 0
1 1 1 1 0 1 0 0 0 0 0 0 0 0 0 0 0 0 0 0 0 0 -0 0 0 0 0 0 0 1 0 1 1 0 0 0 0 0 0 0 0 0 0
1 1 1 2 2 1 1 0 0 0 0 0 0 0 0 0 0 0 0 0 0 0 0 -0 0 0 0 0 0 0 0 1 0 0 0 0 0 0 0 0 0 0 0
3 3 4 2 2 1 4 0 0 0 0 0 0 0 0 0 0 0 0 0 0 0 0 0 0 0 0 0 0 0 0 0 0 1 0 0 0 0 0 0 0 0 0
3 2 3 3 1 1 0 0 1 0 0 1 0 0 0 0 0 0 0 0 0 0 0 0 0 0 0 0 0 0 0 0 0 0 0 0 0 0 0 0 0 0 0
2 1 1 1 1 0 0 0 0 0 2 2 1 0 0 1 0 0 1 0 0 0 0 0 0 0 0 0 0 1 0 0 0 0 0 0 0 0 0 0 0 0 0
2 2 2 2 1 1 0 0 0 0 1 1 0 0 1 0 0 0 0 0 0 0 0 1 0 0 0 0 0 0 0 0 0 0 0 0 0 0 0 0 0 0 0
0 1 2 2 3 2 1 1 1 1 0 0 0 0 1 0 0 0 0 0 0 0 0 0 0 0 0 0 0 0 0 0 0 0 0 0 0 0 0 0 0 0 0
0 0 0 0 2 2 2 1 1 0 0 0 0 1 1 0 0 0 0 1 0 0 0 0 -0 -0 -0 0 0 0 0 0 0 0 0 0 0 0 0 0 0 0 0
0 0 0 0 0 2 2 2 2 1 1 1 1 1 1 1 1 0 0 0 0 0 0 -0 -0 -0 -0 0 0 0 0 0 0 0 0 0 0 0 0 0 0 0 0
0 0 0 1 1 1 1 2 2 2 2 1 1 1 1 1 1 1 1 0 0 0 0 0 -0 -0 0 0 0 0 0 0 0 0 0 0 0 0 0 0 0 0 0
0 0 0 0 1 1 1 1 1 1 1 1 1 1 1 0 1 1 1 1 1 1 0 1 0 0 0 0 0 0 0 0 0 0 0 0 0 0 0 0 0 0 0
0 0 0 0 0 0 0 0 0 0 1 1 1 1 0 1 1 0 0 0 0 1 1 0 0 0 0 0 0 0 0 0 0 0 0 0 0 0 0 0 0 0 0
0 0 0 0 0 0 0 0 0 0 0 0 0 0 0 0 0 0 0 0 0 0 0 0 0 0 0 0 0 0 0 0 0 0 0 0 0 0 0 0 0 0 0
0 0 0 0 0 0 0 0 0 0 0 0 0 0 0 0 0 0 0 0 0 0 0 0 0 0 0 0 0 0 0 0 0 0 0 0 0 0 0 0 0 0 0
0 0 0 0 0 0 0 0 0 0 0 0 0 0 0 0 0 0 0 0 0 0 1 1 0 0 0 0 0 0 0 0 0 0 0 0 0 0 0 0 0 0 0
0 0 0 0 0 0 0 0 0 0 0 0 0 0 0 0 0 0 0 -0 0 0 0 1 0 0 0 0 0 0 0 0 0 0 0 0 0 0 0 0 0 0 0
0 0 0 0 0 0 0 0 0 0 0 0 0 -0 -0 -0 -0 0 0 0 0 0 0 1 1 0 0 0 0 0 0 0 0 0 0 0 0 0 0 0 0 0 0
0 0 0 0 0 0 0 0 0 0 0 0 0 -0 -0 -0 -0 -0 0 0 0 0 0 0 0 1 0 0 0 0 0 0 0 0 0 0 0 0 0 0 0 0 0
0 0 0 0 0 0 0 0 0 0 0 0 0 0 -0 -0 0 -0 0 0 0 0 0 0 0 0 0 0 0 0 0 0 0 0 0 0 0 0 0 0 0 0 0
0 0 0 0 0 0 0 0 0 0 0 0 0 0 -0 -0 0 0 0 0 0 0 0 0 0 0 0 0 0 0 0 0 0 0 0 0 0 0 0 0 0 0 0
Wind_Speed_500mb
58 53 51 47 41 35 30 26 21 16 11 11 14 13 9 8 11 15 13 11 6 4 7 6 5 7 12 19 18 19 19 18 19 18 21 20 20 23 27 28 30 29 28
61 57 55 51 47 40 34 29 27 24 19 16 16 16 15 13 13 15 14 14 13 11 9 10 7 9 11 18 18 17 19 21 22 21 21 24 25 24 27 31 31 32 30
63 59 57 56 53 46 40 35 33 32 29 26 20 22 19 19 16 16 16 17 17 17 12 12 9 9 13 15 15 16 16 20 25 26 25 24 28 28 29 31 31 31 32
66 63 62 60 56 53 50 45 42 39 36 35 28 26 27 25 23 20 21 20 21 18 17 14 11 10 10 13 17 17 19 19 22 27 29 29 28 30 31 33 33 30 33
68 68 70 64 62 60 58 54 50 45 40 39 38 35 33 31 30 32 26 25 25 26 19 16 12 11 11 12 16 16 15 17 18 21 26 28 28 30 32 34 35 32 32
60 72 73 75 71 62 59 56 54 49 46 40 44 41 40 39 36 36 34 32 27 24 20 14 13 12 13 14 20 21 23 27 25 26 26 27 28 30 35 35 37 35 34
73 74 67 71 69 63 58 50 53 45 42 41 47 53 48 49 41 37 40 39 29 17 6 9 13 14 16 17 20 25 27 29 31 29 29 30 29 31 35 38 38 37 35
61 74 73 60 64 62 55 45 43 45 45 40 40 52 47 42 34 16 17 22 24 21 15 11 21 15 19 17 18 24 24 30 34 34 31 32 34 32 31 37 39 38 38
64 64 83 69 55 69 73 79 46 30 51 43 39 47 24 14 18 20 32 31 17 26 19 26 32 25 22 24 21 22 22 26 30 33 31 30 29 33 32 34 38 41 40
69 75 74 76 77 86 70 79 60 44 48 42 44 59 50 50 35 43 52 36 40 42 35 35 36 43 35 31 26 21 27 26 25 27 25 24 24 26 30 33 38 43 43
54 67 70 66 54 91 88 99 114 107 58 43 53 47 39 38 43 40 57 53 46 46 54 40 49 45 42 39 31 28 28 27 29 25 23 24 30 31 30 29 33 38 42
59 62 61 57 52 54 57 59 85 80 95 59 56 53 55 62 59 47 45 54 65 63 63 62 54 48 49 44 38 35 32 32 33 27 26 26 31 35 34 32 35 36 39
54 63 68 68 62 62 55 48 62 71 82 79 90 120 82 69 59 62 52 57 61 72 70 65 67 61 66 51 44 39 33 33 37 33 29 30 32 36 36 35 40 39 38
43 41 45 50 56 59 58 57 59 64 63 82 91 98 72 82 69 66 74 65 59 69 67 66 81 73 75 35 42 35 33 37 39 37 31 32 34 39 37 35 36 39 40
34 39 39 40 41 43 54 58 62 62 63 69 65 60 64 74 77 77 74 79 78 54 72 56 79 69 64 34 43 36 31 36 38 37 35 35 36 41 39 35 34 36 39
33 31 28 30 35 38 39 39 40 45 46 47 48 53 54 57 67 72 69 77 71 73 75 78 68 66 49 31 37 42 39 39 35 38 39 38 39 42 42 37 34 35 37
28 32 34 33 35 33 30 31 35 38 44 46 45 51 58 58 57 56 60 64 77 77 76 64 57 51 50 38 49 45 36 38 37 39 42 40 43 44 44 38 36 36 37
24 30 32 35 31 29 30 35 37 39 42 46 50 54 58 53 60 62 57 56 51 47 47 48 40 42 52 40 58 51 37 36 41 43 42 42 45 48 42 38 36 37 37
35 39 37 36 31 28 27 27 31 35 38 41 47 54 56 57 52 55 52 46 45 51 47 39 46 63 58 64 58 46 38 36 45 43 42 42 45 44 37 36 37 37 37
47 43 41 33 28 21 18 18 19 25 30 32 34 37 46 51 54 54 51 50 39 48 53 55 58 68 62 57 54 42 40 39 44 40 42 41 43 39 36 37 36 39 39
59 48 46 31 30 27 21 17 17 20 24 30 33 35 36 41 53 54 57 57 48 46 46 59 62 66 62 54 55 48 37 39 45 42 42 42 42 37 35 36 37 39 40
73 60 57 50 43 41 37 32 30 29 33 36 38 42 43 46 45 50 52 61 56 54 53 64 63 66 65 52 52 49 38 45 50 46 44 41 42 38 34 36 36 35 36
79 79 71 64 57 52 49 45 44 44 42 41 41 45 50 53 53 49 50 51 58 56 57 64 64 69 55 46 39 43 34 44 43 40 35 34 35 37 33 33 31 28 31
78 81 79 78 71 63 57 54 53 53 52 48 46 46 52 57 55 51 48 51 51 54 50 54 61 63 40 27 25 18 28 37 41 40 39 43 39 37 32 29 26 24 26
52 58 65 77 83 75 66 64 59 63 64 58 52 52 56 61 57 47 46 47 49 51 52 49 48 44 31 27 29 29 39 39 40 42 41 42 42 36 33 28 26 25 26
54 58 58 60 64 71 74 72 66 66 71 69 59 60 61 64 63 50 41 42 50 49 51 43 37 37 35 33 30 35 33 35 37 38 39 39 40 33 24 26 30 31 26
Wind_Direction_500mb
222 221 221 223 227 232 242 249 249 248 231 213 209 210 232 262 281 263 252 262 277 291 295 313 340 333 293 275 279 291 261 257 265 276 274 274 270 264 259 246 243 249 258
229 229 232 232 233 234 239 248 244 248 248 238 241 251 257 268 282 280 274 269 266 274 277 291 336 329 322 274 274 285 270 258 261 267 270 274 267 264 260 257 248 252 253
237 238 240 241 242 239 240 244 245 251 256 257 255 263 264 277 283 286 291 291 277 266 264 269 296 321 328 290 266 276 275 267 260 261 266 273 266 264 264 262 255 249 251
237 241 246 247 250 249 248 247 249 252 254 260 261 267 272 276 282 282 285 295 292 277 262 261 270 303 317 308 273 271 272 275 280 260 260 268 269 263 266 267 261 252 252
247 245 245 246 245 247 250 252 254 258 258 264 272 272 272 271 278 278 290 292 290 274 254 243 251 278 300 289 273 271 289 294 284 279 267 266 264 267 261 264 264 255 252
247 248 247 249 248 250 249 253 260 264 270 273 278 277 277 277 277 283 292 285 291 291 254 262 253 273 290 273 270 277 278 278 284 282 280 270 263 266 263 260 262 260 256
240 259 248 245 249 248 252 256 266 268 271 275 284 284 283 282 276 286 295 284 279 282 249 316 336 295 289 278 265 268 274 284 272 279 276 278 273 264 267 264 260 261 261
252 242 255 245 244 241 246 258 274 272 278 283 288 291 298 285 267 286 337 309 276 262 293 309 328 303 286 280 271 261 270 274 283 278 276 285 277 265 262 266 264 261 263
242 247 252 251 249 261 233 250 252 282 284 290 291 285 285 265 293 268 306 320 300 287 287 324 317 311 292 281 278 269 266 270 276 280 282 287 273 268 263 261 265 261 259
245 243 247 246 253 265 249 227 246 269 285 293 296 280 272 265 286 299 292 303 309 312 300 338 328 311 301 282 278 273 270 264 268 277 285 281 286 272 268 266 271 264 255
240 239 248 256 242 241 254 252 244 253 260 270 273 281 289 283 280 284 291 297 295 307 307 296 310 317 301 291 272 275 271 267 261 263 275 279 282 288 286 278 273 269 258
236 235 237 238 240 245 257 260 242 235 241 245 249 265 288 286 295 290 283 293 295 301 308 306 305 310 314 291 280 277 270 267 256 259 265 276 279 282 285 285 277 267 258
234 236 234 240 244 240 248 250 233 237 234 242 246 258 275 279 283 288 282 290 296 301 302 313 314 307 315 293 285 272 267 265 257 251 263 269 280 283 282 283 277 266 258
251 241 233 235 238 239 240 238 231 240 244 236 259 254 264 277 281 274 277 279 292 295 295 307 310 308 316 297 289 271 268 264 255 242 259 268 275 283 287 285 273 264 258
251 244 237 233 230 227 227 229 232 240 246 250 255 268 267 268 280 276 273 272 273 274 288 303 314 317 316 299 302 282 281 270 253 241 252 265 272 280 289 284 276 267 261
246 239 229 215 213 212 213 213 216 224 232 248 263 273 276 278 284 284 275 266 270 271 275 289 293 298 314 303 305 297 286 271 253 247 252 261 271 279 287 282 279 273 264
249 247 241 235 233 230 227 228 235 243 248 254 259 264 271 274 274 278 281 274 267 268 271 276 281 292 300 300 289 287 275 264 254 252 251 258 269 278 284 276 273 269 263
248 249 260 256 251 251 253 258 260 258 258 261 266 267 265 268 272 275 281 279 288 276 271 268 276 284 279 270 276 279 271 261 253 252 250 259 273 280 280 276 272 267 259
249 249 257 256 259 261 264 266 270 269 267 267 269 273 277 273 271 272 273 279 277 273 264 267 278 280 283 268 273 263 269 257 248 250 251 262 277 278 277 278 275 267 259
249 253 256 251 256 250 253 267 278 269 264 270 278 281 277 274 273 269 266 268 275 276 259 270 278 275 278 272 269 253 260 254 243 249 253 265 274 274 279 283 278 265 256
247 253 251 241 241 251 266 280 299 282 284 286 289 294 298 291 274 272 269 271 268 273 259 272 271 270 271 270 268 258 262 246 243 247 255 263 272 273 282 283 284 269 251
244 248 247 240 247 254 265 275 284 289 296 293 296 299 304 305 295 270 265 263 261 267 262 255 265 268 271 277 266 259 255 236 243 244 258 267 269 272 279 286 286 269 250
245 243 245 244 245 254 260 265 279 284 288 292 298 307 308 310 309 292 266 266 256 256 258 257 258 263 274 279 269 261 249 237 244 259 257 269 263 272 281 287 287 268 251
244 241 245 248 249 252 258 264 272 274 278 284 294 304 310 310 309 299 282 272 263 264 259 251 249 258 262 264 254 250 250 251 249 250 255 263 266 274 282 283 274 279 252
241 245 249 252 251 252 256 261 267 271 273 275 286 294 306 311 313 298 283 279 272 264 265 258 258 243 234 239 242 228 235 231 237 246 252 255 265 275 283 278 263 262 266
252 251 249 248 250 252 255 259 260 269 268 271 277 288 299 312 313 299 278 278 273 270 272 270 243 215 220 226 238 223 226 237 244 252 257 252 267 273 279 274 258 250 254
Wind_Speed_850mb
58 53 51 47 41 35 30 26 21 16 11 11 14 13 9 8 11 15 13 11 6 4 7 6 5 7 12 19 18 19 19 18 19 18 21 20 20 23 27 28 30 29 28
61 57 55 51 47 40 34 29 27 24 19 16 16 16 15 13 13 15 14 14 13 11 9 10 7 9 11 18 18 17 19 21 22 21 21 24 25 24 27 31 31 32 30
63 59 57 56 53 46 40 35 33 32 29 26 20 22 19 19 16 16 16 17 17 17 12 12 9 9 13 15 15 16 16 20 25 26 25 24 28 28 29 31 31 31 32
66 63 62 60 56 53 50 45 42 39 36 35 28 26 27 25 23 20 21 20 21 18 17 14 11 10 10 13 17 17 19 19 22 27 29 29 28 30 31 33 33 30 33
68 68 70 64 62 60 58 54 50 45 40 39 38 35 33 31 30 32 26 25 25 26 19 16 12 11 11 12 16 16 15 17 18 21 26 28 28 30 32 34 35 32 32
60 72 73 75 71 62 59 56 54 49 46 40 44 41 40 39 36 36 34 32 27 24 20 14 13 12 13 14 20 21 23 27 25 26 26 27 28 30 35 35 37 35 34
73 74 67 71 69 63 58 50 53 45 42 41 47 53 48 49 41 37 40 39 29 17 6 9 13 14 16 17 20 25 27 29 31 29 29 30 29 31 35 38 38 37 35
61 74 73 60 64 62 55 45 43 45 45 40 40 52 47 42 34 16 17 22 24 21 15 11 21 15 19 17 18 24 24 30 34 34 31 32 34 32 31 37 39 38 38
64 64 83 69 55 69 73 79 46 30 51 43 39 47 24 14 18 20 32 31 17 26 19 26 32 25 22 24 21 22 22 26 30 33 31 30 29 33 32 34 38 41 40
69 75 74 76 77 86 70 79 60 44 48 42 44 59 50 50 35 43 52 36 40 42 35 35 36 43 35 31 26 21 27 26 25 27 25 24 24 26 30 33 38 43 43
54 67 70 66 54 91 88 99 114 107 58 43 53 47 39 38 43 40 57 53 46 46 54 40 49 45 42 39 31 28 28 27 29 25 23 24 30 31 30 29 33 38 42
59 62 61 57 52 54 57 59 85 80 95 59 56 53 55 62 59 47 45 54 65 63 63 62 54 48 49 44 38 35 32 32 33 27 26 26 31 35 34 32 35 36 39
54 63 68 68 62 62 55 48 62 71 82 79 90 120 82 69 59 62 52 57 61 72 70 65 67 61 66 51 44 39 33 33 37 33 29 30 32 36 36 35 40 39 38
43 41 45 50 56 59 58 57 59 64 63 82 91 98 72 82 69 66 74 65 59 69 67 66 81 73 75 35 42 35 33 37 39 37 31 32 34 39 37 35 36 39 40
34 39 39 40 41 43 54 58 62 62 63 69 65 60 64 74 77 77 74 79 78 54 72 56 79 69 64 34 43 36 31 36 38 37 35 35 36 41 39 35 34 36 39
33 31 28 30 35 38 39 39 40 45 46 47 48 53 54 57 67 72 69 77 71 73 75 78 68 66 49 31 37 42 39 39 35 38 39 38 39 42 42 37 34 35 37
28 32 34 33 35 33 30 31 35 38 44 46 45 51 58 58 57 56 60 64 77 77 76 64 57 51 50 38 49 45 36 38 37 39 42 40 43 44 44 38 36 36 37
24 30 32 35 31 29 30 35 37 39 42 46 50 54 58 53 60 62 57 56 51 47 47 48 40 42 52 40 58 51 37 36 41 43 42 42 45 48 42 38 36 37 37
35 39 37 36 31 28 27 27 31 35 38 41 47 54 56 57 52 55 52 46 45 51 47 39 46 63 58 64 58 46 38 36 45 43 42 42 45 44 37 36 37 37 37
47 43 41 33 28 21 18 18 19 25 30 32 34 37 46 51 54 54 51 50 39 48 53 55 58 68 62 57 54 42 40 39 44 40 42 41 43 39 36 37 36 39 39
59 48 46 31 30 27 21 17 17 20 24 30 33 35 36 41 53 54 57 57 48 46 46 59 62 66 62 54 55 48 37 39 45 42 42 42 42 37 35 36 37 39 40
73 60 57 50 43 41 37 32 30 29 33 36 38 42 43 46 45 50 52 61 56 54 53 64 63 66 65 52 52 49 38 45 50 46 44 41 42 38 34 36 36 35 36
79 79 71 64 57 52 49 45 44 44 42 41 41 45 50 53 53 49 50 51 58 56 57 64 64 69 55 46 39 43 34 44 43 40 35 34 35 37 33 33 31 28 31
78 81 79 78 71 63 57 54 53 53 52 48 46 46 52 57 55 51 48 51 51 54 50 54 61 63 40 27 25 18 28 37 41 40 39 43 39 37 32 29 26 24 26
52 58 65 77 83 75 66 64 59 63 64 58 52 52 56 61 57 47 46 47 49 51 52 49 48 44 31 27 29 29 39 39 40 42 41 42 42 36 33 28 26 25 26
54 58 58 60 64 71 74 72 66 66 71 69 59 60 61 64 63 50 41 42 50 49 51 43 37 37 35 33 30 35 33 35 37 38 39 39 40 33 24 26 30 31 26
Wind_Direction_850mb
222 221 221 223 227 232 242 249 249 248 231 213 209 210 232 262 281 263 252 262 277 291 295 313 340 333 293 275 279 291 261 257 265 276 274 274 270 264 259 246 243 249 258
229 229 232 232 233 234 239 248 244 248 248 238 241 251 257 268 282 280 274 269 266 274 277 291 336 329 322 274 274 285 270 258 261 267 270 274 267 264 260 257 248 252 253
237 238 240 241 242 239 240 244 245 251 256 257 255 263 264 277 283 286 291 291 277 266 264 269 296 321 328 290 266 276 275 267 260 261 266 273 266 264 264 262 255 249 251
237 241 246 247 250 249 248 247 249 252 254 260 261 267 272 276 282 282 285 295 292 277 262 261 270 303 317 308 273 271 272 275 280 260 260 268 269 263 266 267 261 252 252
247 245 245 246 245 247 250 252 254 258 258 264 272 272 272 271 278 278 290 292 290 274 254 243 251 278 300 289 273 271 289 294 284 279 267 266 264 267 261 264 264 255 252
247 248 247 249 248 250 249 253 260 264 270 273 278 277 277 277 277 283 292 285 291 291 254 262 253 273 290 273 270 277 278 278 284 282 280 270 263 266 263 260 262 260 256
240 259 248 245 249 248 252 256 266 268 271 275 284 284 283 282 276 286 295 284 279 282 249 316 336 295 289 278 265 268 274 284 272 279 276 278 273 264 267 264 260 261 261
252 242 255 245 244 241 246 258 274 272 278 283 288 291 298 285 267 286 337 309 276 262 293 309 328 303 286 280 271 261 270 274 283 278 276 285 277 265 262 266 264 261 263
242 247 252 251 249 261 233 250 252 282 284 290 291 285 285 265 293 268 306 320 300 287 287 324 317 311 292 281 278 269 266 270 276 280 282 287 273 268 263 261 265 261 259
245 243 247 246 253 265 249 227 246 269 285 293 296 280 272 265 286 299 292 303 309 312 300 338 328 311 301 282 278 273 270 264 268 277 285 281 286 272 268 266 271 264 255
240 239 248 256 242 241 254 252 244 253 260 270 273 281 289 283 280 284 291 297 295 307 307 296 310 317 301 291 272 275 271 267 261 263 275 279 282 288 286 278 273 269 258
236 235 237 238 240 245 257 260 242 235 241 245 249 265 288 286 295 290 283 293 295 301 308 306 305 310 314 291 280 277 270 267 256 259 265 276 279 282 285 285 277 267 258
234 236 234 240 244 240 248 250 233 237 234 242 246 258 275 279 283 288 282 290 296 301 302 313 314 307 315 293 285 272 267 265 257 251 263 269 280 283 282 283 277 266 258
251 241 233 235 238 239 240 238 231 240 244 236 259 254 264 277 281 274 277 279 292 295 295 307 310 308 316 297 289 271 268 264 255 242 259 268 275 283 287 285 273 264 258
251 244 237 233 230 227 227 229 232 240 246 250 255 268 267 268 280 276 273 272 273 274 288 303 314 317 316 299 302 282 281 270 253 241 252 265 272 280 289 284 276 267 261
246 239 229 215 213 212 213 213 216 224 232 248 263 273 276 278 284 284 275 266 270 271 275 289 293 298 314 303 305 297 286 271 253 247 252 261 271 279 287 282 279 273 264
249 247 241 235 233 230 227 228 235 243 248 254 259 264 271 274 274 278 281 274 267 268 271 276 281 292 300 300 289 287 275 264 254 252 251 258 269 278 284 276 273 269 263
248 249 260 256 251 251 253 258 260 258 258 261 266 267 265 268 272 275 281 279 288 276 271 268 276 284 279 270 276 279 271 261 253 252 250 259 273 280 280 276 272 267 259
249 249 257 256 259 261 264 266 270 269 267 267 269 273 277 273 271 272 273 279 277 273 264 267 278 280 283 268 273 263 269 257 248 250 251 262 277 278 277 278 275 267 259
249 253 256 251 256 250 253 267 278 269 264 270 278 281 277 274 273 269 266 268 275 276 259 270 278 275 278 272 269 253 260 254 243 249 253 265 274 274 279 283 278 265 256
247 253 251 241 241 251 266 280 299 282 284 286 289 294 298 291 274 272 269 271 268 273 259 272 271 270 271 270 268 258 262 246 243 247 255 263 272 273 282 283 284 269 251
244 248 247 240 247 254 265 275 284 289 296 293 296 299 304 305 295 270 265 263 261 267 262 255 265 268 271 277 266 259 255 236 243 244 258 267 269 272 279 286 286 269 250
245 243 245 244 245 254 260 265 279 284 288 292 298 307 308 310 309 292 266 266 256 256 258 257 258 263 274 279 269 261 249 237 244 259 257 269 263 272 281 287 287 268 251
244 241 245 248 249 252 258 264 272 274 278 284 294 304 310 310 309 299 282 272 263 264 259 251 249 258 262 264 254 250 250 251 249 250 255 263 266 274 282 283 274 279 252
241 245 249 252 251 252 256 261 267 271 273 275 286 294 306 311 313 298 283 279 272 264 265 258 258 243 234 239 242 228 235 231 237 246 252 255 265 275 283 278 263 262 266
252 251 249 248 250 252 255 259 260 269 268 271 277 288 299 312 313 299 278 278 273 270 272 270 243 215 220 226 238 223 226 237 244 252 257 252 267 273 279 274 258 250 254